| time (UTC) | temp C | wind direction | speed KPH | gust KPH | rain 1hr cm | rain 24hr cm | rain mn cm | humidity % | barometer mb |
| 20260503185515 | -17 | 0.0 | 0.0 | 0.00 | 0.64 | 0.48 | |||
| 20260503184515 | -17 | 0.0 | 0.0 | 0.00 | 0.64 | 0.48 | |||
| 20260503183016 | -17 | 0.0 | 0.0 | 0.00 | 0.69 | 0.48 | |||
| 20260503182016 | -17 | 0.0 | 0.0 | 0.00 | 0.69 | 0.48 | |||
| 20260503180035 | 15 | 3.2 | 11.3 | 0.00 | 0.69 | 0.48 | 77 | ||
| 20260503175016 | 16 | 3.2 | 12.9 | 0.00 | 0.69 | 0.48 | 76 | ||
| 20260503174015 | 16 | 3.2 | 8.0 | 0.00 | 0.69 | 0.48 | 75 | ||
| 20260503173016 | 16 | 4.8 | 14.5 | 0.00 | 0.69 | 0.48 | 76 | ||
| 20260503172035 | 16 | 6.4 | 16.1 | 0.00 | 0.69 | 0.48 | 75 | ||
| 20260503171015 | 16 | 8.0 | 20.9 | 0.00 | 0.69 | 0.48 | 75 | ||
| 20260503131016 | 14 | 4.8 | 9.7 | 0.00 | 0.69 | 0.48 | 80 | 1014.8 | |
| 20260503081516 | -17 | 0.0 | 0.0 | 0.00 | 0.71 | 0.48 | |||
| 20260503080515 | -17 | 0.0 | 0.0 | 0.00 | 0.71 | 0.48 | |||
| 20260503072536 | -17 | 0.0 | 0.0 | 0.00 | 0.71 | 0.48 | |||
| 20260503071516 | -17 | 0.0 | 0.0 | 0.00 | 0.71 | 0.48 | |||
| 20260503054516 | -17 | 0.0 | 0.0 | 0.00 | 0.71 | 0.48 | |||
| 20260503053515 | -17 | 0.0 | 0.0 | 0.00 | 0.71 | 0.48 | |||
| 20260503052015 | -17 | 0.0 | 0.0 | 0.00 | 0.71 | 0.48 | |||
| 20260503051015 | -17 | 0.0 | 0.0 | 0.00 | 0.71 | 0.48 | |||
| 20260503045515 | -17 | 0.0 | 0.0 | 0.00 | 0.71 | 0.48 | |||
| 20260503044515 | -17 | 0.0 | 0.0 | 0.00 | 0.71 | 0.48 | |||
| 20260503043016 | -17 | 0.0 | 0.0 | 0.00 | 0.71 | 0.48 | |||
| 20260503042015 | -17 | 0.0 | 0.0 | 0.00 | 0.71 | 0.48 | |||
| 20260503040515 | -17 | 0.0 | 0.0 | 0.00 | 0.71 | 0.48 | |||
| 20260503035515 | -17 | 0.0 | 0.0 | 0.00 | 0.71 | 0.48 | |||
| 20260503034015 | -17 | 0.0 | 0.0 | 0.00 | 0.71 | 0.48 | |||
| 20260503033015 | -17 | 0.0 | 0.0 | 0.00 | 0.71 | 0.48 | |||
| 20260503031515 | -17 | 0.0 | 0.0 | 0.00 | 0.71 | 0.48 | |||
| 20260503030515 | -17 | 0.0 | 0.0 | 0.00 | 0.71 | 0.48 | |||
| 20260503025015 | -17 | 0.0 | 0.0 | 0.00 | 0.71 | 0.48 | |||
| 20260503024015 | -17 | 0.0 | 0.0 | 0.00 | 0.71 | 0.48 | |||
| 20260503022515 | -17 | 0.0 | 0.0 | 0.00 | 0.71 | 0.48 | |||
| 20260503021515 | -17 | 0.0 | 0.0 | 0.00 | 0.71 | 0.48 | |||
| 20260503020016 | -17 | 0.0 | 0.0 | 0.05 | 0.71 | 0.48 | |||
| 20260503015015 | -17 | 0.0 | 0.0 | 0.10 | 0.71 | 0.48 | |||
| 20260503013515 | -17 | 0.0 | 0.0 | 0.10 | 0.71 | 0.48 | |||
| 20260503012516 | 13 | 0.0 | 0.0 | 0.10 | 0.71 | 0.48 | 11 | 1014.9 | |
| 20260503010516 | 13 | 0.0 | 0.0 | 0.10 | 0.69 | 0.46 | 14 | 1015.1 | |
| 20260503005515 | 13 | 0.0 | 0.0 | 0.13 | 0.61 | 0.41 | 14 | 1015.1 | |
| 20260503004516 | 13 | 0.0 | 0.0 | 0.18 | 0.61 | 0.38 | 14 | 1015.1 | |
| 20260503003515 | 13 | 0.0 | 0.0 | 0.18 | 0.61 | 0.38 | 14 | 1015.2 | |
| 20260503002516 | 13 | 0.0 | 0.0 | 0.18 | 0.61 | 0.38 | 14 | 1015.3 | |
| 20260503001515 | 13 | 0.0 | 0.0 | 0.18 | 0.61 | 0.38 | 15 | 1015.4 | |
| 20260503000515 | 13 | 0.0 | 0.0 | 0.15 | 0.61 | 0.36 | 16 | 1015.5 | |
| 20260502235515 | 13 | 0.0 | 0.0 | 0.08 | 0.61 | 0.28 | 17 | 1015.5 | |
| 20260502234516 | 13 | 0.0 | 0.0 | 0.00 | 0.51 | 0.20 | 16 | 1015.5 | |
| 20260502233516 | 13 | 0.0 | 0.0 | 0.00 | 0.51 | 0.20 | 16 | 1015.6 | |
| 20260502232515 | 13 | 0.0 | 0.0 | 0.05 | 0.51 | 0.20 | 16 | 1015.5 | |
| 20260502231515 | 13 | 0.0 | 0.0 | 0.15 | 0.64 | 0.20 | 18 | 1015.5 | |
| 20260502230516 | 13 | 0.0 | 3.2 | 0.20 | 0.74 | 0.20 | 18 | 1015.6 | |
| 20260502225515 | 13 | 227 | 0.0 | 4.8 | 0.20 | 0.74 | 0.20 | 19 | 1015.5 |
| 20260502224536 | 13 | 0.0 | 0.0 | 0.23 | 0.74 | 0.20 | 20 | 1015.5 | |
| 20260502223535 | 13 | 0.0 | 0.0 | 0.33 | 0.74 | 0.20 | 20 | 1015.6 | |
| 20260502222535 | 13 | 0.0 | 0.0 | 0.28 | 0.71 | 0.15 | 21 | 1015.7 | |
| 20260502221515 | 13 | 0.0 | 0.0 | 0.15 | 0.58 | 0.05 | 21 | 1015.8 | |
| 20260502220515 | 13 | 265 | 0.0 | 1.6 | 0.13 | 0.53 | 0.00 | 22 | 1015.9 |
| 20260502215516 | 13 | 0.0 | 0.0 | 0.13 | 0.53 | 0.53 | 22 | 1015.9 | |
| 20260502214516 | 13 | 0.0 | 0.0 | 0.08 | 0.51 | 0.51 | 25 | 1015.9 | |
| 20260502213517 | 13 | 0.0 | 0.0 | 0.00 | 0.43 | 0.43 | 25 | 1015.9 | |
| 20260502212516 | 13 | 0.0 | 1.6 | 0.00 | 0.43 | 0.43 | 26 | 1015.9 | |
| 20260502211516 | 13 | 271 | 0.0 | 3.2 | 0.00 | 0.43 | 0.43 | 27 | 1015.9 |
| 20260502210536 | 13 | 239 | 0.0 | 1.6 | 0.00 | 0.43 | 0.43 | 28 | 1015.8 |
| 20260502205536 | 13 | 226 | 1.6 | 1.6 | 0.00 | 0.43 | 0.43 | 31 | 1015.7 |
| 20260502204515 | 13 | 0.0 | 0.0 | 0.00 | 0.43 | 0.43 | 32 | 1015.7 | |
| 20260502203516 | 13 | 0.0 | 0.0 | 0.00 | 0.43 | 0.43 | 34 | 1015.7 | |
| 20260502202516 | 13 | 0.0 | 0.0 | 0.03 | 0.43 | 0.43 | 35 | 1015.6 | |
| 20260502201515 | 13 | 0.0 | 0.0 | 0.03 | 0.43 | 0.43 | 40 | 1015.4 | |
| 20260502200516 | 13 | 229 | 0.0 | 1.6 | 0.03 | 0.43 | 0.43 | 44 | 1015.3 |
| 20260502195516 | 14 | 0.0 | 0.0 | 0.05 | 0.43 | 0.43 | 47 | 1015.3 | |
| 20260502194516 | 14 | 0.0 | 0.0 | 0.05 | 0.43 | 0.43 | 51 | 1015.3 | |
| 20260502193516 | 14 | 0.0 | 0.0 | 0.05 | 0.43 | 0.43 | 56 | 1015.3 | |
| 20260502192556 | 14 | 0.0 | 0.0 | 0.05 | 0.41 | 0.41 | 61 | 1015.3 | |
| 20260502191536 | 14 | 0.0 | 0.0 | 0.05 | 0.41 | 0.41 | 66 | 1015.2 | |
| 20260502190516 | 14 | 0.0 | 0.0 | 0.05 | 0.41 | 0.41 | 70 | 1015.3 |